This is the latest recevied weather packets stored in our database for station/object KC5DAQ-22. If no packets are shown the sender has not sent any weather packets the latest 1 day(s).
| Time | Temp. | Humidity | Pressure | Rain* | Wind** | Luminosity | Snow |
|---|---|---|---|---|---|---|---|
| 1778082482 | 27.22° C | 86% | 1008.6 hPa | 0 mm | - | 158 W/m² | - |
| 1778082422 | 27.22° C | 86% | 1008.5 hPa | 0 mm | - | 148 W/m² | - |
| 1778082244 | 27.22° C | 86% | 1008.6 hPa | 0 mm | - | 146 W/m² | - |
| 1778081883 | 27.22° C | 86% | 1008.5 hPa | 0 mm | - | 181 W/m² | - |
| 1778081703 | 27.22° C | 86% | 1008.5 hPa | 0 mm | - | 183 W/m² | - |
| 1778081642 | 27.22° C | 86% | 1008.5 hPa | 0 mm | - | 181 W/m² | - |
| 1778081582 | 27.22° C | 86% | 1008.5 hPa | 0 mm | - | 176 W/m² | - |
| 1778081523 | 27.22° C | 86% | 1008.5 hPa | 0 mm | - | 169 W/m² | - |
| 1778081105 | 27.22° C | 86% | 1008.3 hPa | 0 mm | - | 162 W/m² | - |
| 1778080983 | 27.22° C | 86% | 1008.3 hPa | 0 mm | - | 155 W/m² | - |
| 1778080923 | 27.22° C | 86% | 1008.4 hPa | 0 mm | - | 146 W/m² | - |
| 1778080264 | 27.22° C | 86% | 1008.2 hPa | 0 mm | - | 185 W/m² | - |
| 1778080142 | 27.22° C | 87% | 1008.1 hPa | 0 mm | - | 190 W/m² | - |
| 1778079964 | 27.22° C | 87% | 1008.1 hPa | 0 mm | - | 215 W/m² | - |
| 1778079422 | 27.22° C | 87% | 1008.1 hPa | 0 mm | - | 197 W/m² | - |
| 1778078884 | 27.22° C | 87% | 1007.8 hPa | 0 mm | - | 241 W/m² | - |
| 1778078583 | 27.22° C | 88% | 1007.7 hPa | 0 mm | - | 216 W/m² | - |
| 1778078522 | 26.67° C | 88% | 1007.8 hPa | 0 mm | - | 216 W/m² | - |
| 1778078105 | 26.67° C | 88% | 1007.7 hPa | 0 mm | - | 181 W/m² | - |
| 1778078043 | 26.67° C | 88% | 1007.7 hPa | 0 mm | - | 190 W/m² | - |
| 1778077443 | 26.67° C | 90% | 1007.6 hPa | 0 mm | - | 220 W/m² | - |
| 1778076399 | 25.56° C | 92% | 1007.8 hPa | 0 mm | - | 190 W/m² | - |
| 1778075978 | 25.56° C | 92% | 1007.8 hPa | 0 mm | - | 158 W/m² | - |
| 1778075917 | 25.56° C | 92% | 1007.8 hPa | 0 mm | - | 162 W/m² | - |
| 1778075739 | 25.56° C | 93% | 1007.8 hPa | 0 mm | - | 193 W/m² | - |
* Rain latest hour (hover to see other rain measurements)
** Current wind speed in m/s (hover to see current wind gust speed)